Location: Astronomy Club of Akron Observatory
(40.9700°N, 81.5606°W)
Time: 06:04:34
(UTC-04:00)

ISS - Pass Details

Date: 15 July 2018
Orbit: 402 x 408 km, 51.6° (Epoch: 17 July)

Event Time Altitude Azimuth Distance (km) Brightness Sun altitude
Exits shadow 02:00:24 21° 2° (N) 963 -1.2 -27.2°
Drops below altitude 10° 02:02:19 10° 34° (NE) 1,470 -0.2 -27.1°
Sets 02:04:41 0° 49° (NE) 2,333 0.7 -27.1°
